Vorticity
nan nan nan nan nan nan nan nan nan nan nan nan nan nan nan nan nan nan nan nan nan nan nan nan nan nan nan nan nan nan nan nan nan nan nan nan nan nan nan nan nan nan nan nan nan nan nan nan nan nan nan nan nan nan nan nan nan nan nan nan nan nan nan nan nan nan nan nan nan nan nan nan nan nan nan nan nan nan nan nan nan nan nan nan nan nan nan nan nan nan nan nan nan nan nan nan nan nan nan nan nan nan nan
nan 5 5 5 5 5 5 5 5 5 4 4 4 4 3 3 4 4 4 5 6 6 7 8 8 9 9 9 8 7 6 5 5 5 5 6 6 7 7 6 5 4 3 2 1 1 3 5 6 6 7 8 8 7 6 6 7 8 9 10 9 9 9 5 6 6 6 7 7 7 6 6 6 6 6 6 6 6 6 7 7 6 6 6 6 7 8 8 7 7 7 7 7 7 7 7 6 5 5 5 5 5 nan
nan 5 5 5 5 5 6 5 5 5 4 3 3 3 3 3 4 4 4 5 6 6 7 8 9 9 9 9 8 8 6 5 5 5 5 6 6 7 7 6 5 4 3 2 1 1 0 4 6 6 6 7 7 7 7 8 8 8 8 8 8 8 10 5 5 6 6 6 7 7 7 7 6 6 6 6 6 6 6 7 7 6 6 5 6 6 7 7 7 7 7 7 7 7 7 6 6 6 5 5 5 5 nan
nan 5 6 5 5 6 6 5 5 4 4 3 3 3 3 4 4 4 4 5 6 6 7 8 9 9 10 10 9 9 7 5 5 5 5 6 6 6 6 6 5 4 3 2 1 1 -1 2 5 6 6 6 5 5 6 7 8 7 7 7 8 9 10 6 5 5 6 6 7 7 7 7 7 6 6 6 6 6 6 6 7 7 6 6 5 5 6 6 6 6 6 6 6 6 6 6 6 6 6 6 5 5 nan
nan 5 6 5 5 6 6 5 5 4 4 3 3 3 4 4 4 4 4 5 6 6 7 7 8 9 10 10 10 9 8 6 5 5 5 5 6 6 6 5 4 3 2 1 2 3 4 3 4 5 5 5 4 3 4 6 6 7 6 6 9 10 7 5 5 5 5 6 6 6 7 7 7 7 6 6 6 6 5 6 6 7 6 6 5 5 5 5 5 6 6 6 6 6 6 6 6 6 6 6 6 6 nan
nan 5 5 5 5 5 6 5 5 4 4 3 3 3 4 4 4 4 5 5 6 6 6 7 8 9 10 11 10 10 8 7 6 5 5 5 5 6 5 5 4 3 1 1 2 4 6 5 6 5 4 4 4 4 5 6 6 6 7 8 12 11 4 4 4 4 5 5 6 6 6 6 6 6 6 6 6 6 6 6 6 6 6 6 6 6 5 5 5 5 5 6 6 6 6 6 6 6 6 6 6 6 nan
nan 5 5 4 4 5 6 6 5 4 4 4 3 4 4 4 4 4 4 5 5 6 6 6 7 8 9 10 10 10 9 7 6 5 5 5 5 5 5 4 3 3 2 2 3 4 6 6 7 6 5 5 5 5 6 6 7 7 7 10 12 9 3 3 4 4 4 5 5 6 6 6 6 6 6 6 6 6 6 6 6 6 6 6 6 6 6 5 5 5 5 5 5 5 5 6 6 6 5 5 6 6 nan
nan 5 4 4 4 6 7 6 5 5 4 4 4 4 4 4 4 4 4 5 5 5 5 6 6 7 8 9 10 10 9 8 7 6 5 5 5 5 5 4 3 3 3 3 3 4 6 6 5 5 5 5 6 6 6 5 6 6 7 9 7 4 3 3 3 4 4 4 5 5 5 5 6 6 6 6 6 6 6 6 5 6 6 6 6 6 6 6 6 6 6 6 5 5 5 6 6 6 5 6 6 6 nan
nan 4 4 4 5 7 7 7 6 5 4 4 4 4 4 3 3 3 4 4 5 5 5 5 6 6 7 9 9 9 9 8 7 6 6 5 5 5 4 4 3 3 3 4 4 4 4 5 5 5 5 6 6 6 7 6 5 6 7 8 8 6 4 3 3 4 4 4 4 4 5 5 5 6 6 6 6 6 6 6 5 5 6 6 6 6 6 6 6 6 6 6 6 6 6 6 6 6 6 7 7 7 nan
nan 4 4 5 6 7 8 7 6 5 5 4 4 4 3 3 3 3 4 4 5 5 5 5 5 6 7 8 8 9 9 9 8 7 7 6 6 5 4 3 3 3 4 4 4 3 4 5 6 6 6 6 6 6 6 6 5 6 8 11 11 7 3 3 3 3 4 4 4 4 4 4 5 5 5 6 6 6 6 5 5 5 5 6 6 6 6 6 6 6 6 7 7 7 6 6 6 6 7 7 7 7 nan
nan 4 4 5 5 7 7 7 6 5 5 5 4 4 3 3 3 3 4 4 4 4 4 4 5 5 6 6 7 8 9 9 9 9 8 7 6 5 4 3 3 4 4 4 4 2 3 5 6 6 7 6 6 6 5 6 6 6 9 14 10 5 3 3 3 3 3 3 3 3 3 4 4 5 5 5 5 6 6 6 6 5 5 6 6 6 6 6 6 6 6 7 7 7 7 7 7 7 7 7 7 7 nan
nan 5 4 4 5 6 7 6 6 5 5 4 4 3 3 3 3 3 4 4 4 4 4 4 4 4 5 5 6 6 7 8 9 9 9 8 7 6 5 4 4 4 5 4 3 1 1 5 6 6 7 6 6 6 6 6 6 6 9 13 8 3 3 3 3 3 3 3 3 3 3 3 4 4 4 5 5 5 6 6 6 6 5 5 5 5 6 6 6 6 6 7 7 7 7 7 7 7 7 7 7 6 nan
nan 4 2 3 5 6 6 6 5 5 4 4 3 3 3 3 3 3 3 4 3 3 3 3 3 3 4 4 4 5 6 7 8 8 9 9 8 7 6 4 4 4 4 3 1 -0 2 5 6 6 7 6 5 6 6 7 7 7 10 12 7 4 3 3 4 4 3 3 3 3 3 3 3 4 4 4 5 5 5 6 6 6 6 5 5 5 6 5 6 6 6 6 6 7 7 7 7 7 7 7 6 6 nan
nan 2 3 6 7 6 6 6 5 5 4 4 3 3 3 4 4 4 4 3 3 3 3 3 3 3 3 3 3 4 5 6 7 8 8 9 9 8 6 5 5 4 3 1 0 2 5 6 6 6 6 6 6 6 7 7 7 7 12 10 6 4 3 3 4 4 3 3 3 3 3 3 3 3 4 4 4 4 5 5 6 6 6 6 5 5 5 5 6 6 6 6 6 7 7 7 7 7 7 6 5 6 nan
nan 3 6 7 7 6 6 6 5 5 4 4 4 4 5 4 4 4 4 4 3 3 3 3 3 3 3 3 3 3 4 5 6 7 8 8 8 8 8 6 5 4 1 -1 2 5 7 7 7 6 6 6 6 6 7 7 6 7 11 10 6 4 3 3 3 4 4 3 3 3 3 3 3 3 3 4 4 4 4 5 5 5 6 6 5 5 5 5 5 6 6 6 6 6 6 7 7 7 7 6 5 5 nan
nan 6 7 7 6 6 6 6 6 6 5 5 5 6 6 5 5 4 4 4 4 3 3 3 3 4 4 4 4 3 1 1 3 5 7 8 8 9 8 7 5 2 -1 1 4 6 7 7 7 7 6 6 6 6 7 6 5 6 11 10 6 4 3 3 3 4 4 3 3 3 3 2 2 3 3 3 4 4 4 4 5 5 5 5 5 5 5 5 6 6 6 6 6 6 6 6 6 7 6 6 5 5 nan
nan 7 7 7 7 7 7 7 7 6 6 6 6 7 7 6 5 5 5 5 4 4 4 4 4 4 5 5 5 3 -1 -3 -2 -0 4 6 7 8 8 6 4 2 2 5 6 6 6 7 7 7 6 6 6 6 6 6 5 6 11 11 7 4 3 3 3 4 4 4 3 3 3 2 2 3 3 3 3 3 3 4 4 5 5 5 5 5 5 5 5 6 6 6 6 6 6 6 6 6 6 6 6 5 nan
nan 9 8 8 8 8 8 7 7 7 6 6 6 7 6 5 5 6 6 6 5 5 5 5 5 5 5 6 6 5 4 1 -1 -1 -1 2 4 5 5 3 3 4 6 7 7 6 6 6 7 7 7 6 5 6 6 5 5 6 9 10 8 6 4 3 3 4 4 3 3 3 3 3 3 3 3 3 3 3 3 4 4 4 5 5 5 5 5 5 5 5 5 6 6 6 5 5 5 5 6 6 6 6 nan
nan 9 8 8 8 8 8 7 7 6 6 6 6 6 5 4 5 5 6 6 6 6 6 6 5 5 5 5 6 7 8 7 5 3 1 1 1 2 2 3 4 6 8 8 7 7 7 7 6 6 6 6 6 6 6 5 5 6 8 9 8 7 6 4 4 4 4 4 4 4 4 4 4 4 4 3 3 3 3 3 3 4 4 4 5 5 5 5 5 5 5 5 5 6 5 5 5 5 5 6 6 6 nan
nan 6 6 6 6 6 6 5 5 5 4 5 5 5 3 1 2 3 5 5 5 5 6 6 4 3 4 4 5 7 8 9 8 7 5 4 3 3 3 4 6 7 8 8 8 7 7 7 7 6 6 6 6 6 6 5 5 5 6 7 7 7 7 6 5 4 4 5 5 5 5 5 5 4 3 3 3 3 4 3 3 3 4 4 4 4 5 5 5 5 5 5 5 5 5 5 5 4 5 5 5 6 nan
nan 4 3 3 3 2 1 2 2 2 2 4 3 2 0 -0 0 2 3 2 2 3 4 4 4 3 2 4 6 7 8 8 8 8 7 6 6 5 6 7 7 7 7 8 8 7 7 7 7 7 6 6 6 7 6 4 4 6 6 6 6 6 6 6 6 5 5 6 6 6 6 6 5 4 2 2 2 4 5 4 3 3 3 4 4 4 4 4 4 4 4 5 5 5 5 5 5 4 4 4 5 5 nan
nan 5 5 3 2 1 1 2 3 2 2 3 4 3 2 2 1 1 2 2 1 1 2 4 5 5 4 5 6 7 7 8 8 8 8 7 6 6 7 7 7 7 7 8 8 8 7 7 7 7 7 6 7 7 5 4 5 6 6 6 5 5 5 5 5 5 6 7 7 7 7 6 5 4 2 2 3 4 5 4 4 3 3 4 4 4 4 4 4 4 4 4 5 5 5 5 5 4 4 4 4 4 nan
nan 7 7 6 5 5 5 5 5 4 3 3 6 5 5 5 4 4 4 4 3 2 4 6 6 6 6 6 6 7 7 7 8 8 8 7 7 6 6 7 7 7 7 7 8 8 7 7 7 7 7 6 7 7 6 5 6 6 7 7 5 4 4 3 4 4 5 6 7 8 7 7 6 4 3 4 6 6 5 4 4 4 4 4 3 4 3 3 3 4 4 4 4 4 5 5 5 4 4 4 4 4 nan
nan 7 7 7 7 7 7 7 6 6 5 5 6 6 6 6 7 7 6 6 5 5 6 7 7 7 7 7 7 7 7 7 8 8 8 8 8 7 7 7 7 7 7 7 8 8 7 7 7 7 7 6 7 7 6 6 6 6 7 7 6 5 4 3 3 4 4 5 6 7 7 7 6 5 5 8 9 8 5 4 3 4 4 4 4 3 3 3 3 3 3 4 4 4 4 5 5 4 4 4 4 4 nan
nan 7 7 7 7 7 7 7 7 6 6 6 6 6 7 7 7 7 7 7 7 6 6 7 8 7 8 7 7 7 7 7 7 8 8 7 7 7 7 7 7 7 7 7 7 8 7 7 7 7 7 6 7 7 7 6 6 6 7 8 7 6 5 4 4 4 4 5 5 6 6 6 6 6 8 10 11 9 5 3 3 4 4 4 4 4 3 3 3 3 3 3 3 4 4 4 4 4 4 4 4 4 nan
nan 7 6 6 7 7 8 8 7 6 6 7 7 6 6 7 7 6 7 7 7 7 6 7 7 7 7 6 7 7 7 7 7 7 7 7 7 7 7 7 7 7 7 7 7 8 8 7 7 7 7 7 7 7 8 7 7 6 7 8 8 7 6 5 5 5 5 5 5 5 6 6 6 6 9 11 11 9 5 3 3 4 4 5 5 4 4 3 3 3 3 3 3 3 3 4 4 4 4 4 4 4 nan
nan 6 6 7 7 8 8 7 7 7 7 8 7 6 5 6 6 6 7 7 7 7 6 6 6 7 6 6 6 6 6 6 6 7 7 7 7 6 7 7 7 8 7 7 7 7 8 8 8 7 7 6 7 7 8 9 8 7 6 7 8 8 8 7 6 5 6 6 6 6 6 6 6 6 8 10 10 8 6 3 3 3 4 5 5 4 4 4 4 3 3 3 3 3 3 3 3 4 4 4 4 4 nan
nan 5 6 7 7 8 7 7 7 7 8 8 8 7 5 5 6 7 7 7 8 7 6 6 6 7 7 6 6 6 6 7 7 7 7 7 7 6 7 6 7 7 7 7 7 7 8 8 8 7 7 6 6 7 8 10 9 7 6 7 8 8 8 7 7 7 7 7 7 7 7 6 6 7 8 8 8 8 7 5 3 3 3 4 5 5 5 6 6 5 3 3 3 3 3 3 3 3 3 4 4 4 nan
nan 5 6 7 7 7 7 7 7 7 7 8 8 8 7 6 6 7 7 8 7 7 6 6 6 6 6 6 6 6 7 6 6 6 7 8 8 7 8 7 7 7 7 7 7 7 7 8 8 8 7 6 6 7 7 9 9 8 8 7 8 8 8 8 7 7 7 7 7 8 8 7 7 7 7 7 7 7 7 6 5 4 4 4 5 6 7 8 7 6 4 3 3 3 3 3 3 3 3 3 3 4 nan
nan 5 6 7 7 7 7 7 7 7 8 8 8 7 7 7 7 6 6 6 6 6 6 6 6 6 6 6 6 7 8 7 6 6 6 8 8 8 8 8 7 7 7 8 8 8 8 8 8 8 8 8 7 6 7 8 9 9 8 7 8 8 8 8 7 7 7 7 8 8 8 8 7 7 7 7 7 7 7 7 7 6 5 5 6 7 7 9 9 8 5 4 3 3 3 3 3 3 3 3 3 3 nan
nan 5 6 6 6 6 7 7 7 6 7 7 7 7 7 8 8 7 7 6 6 6 6 6 6 6 6 6 7 8 9 8 7 6 6 7 7 8 8 8 8 8 8 9 8 8 9 9 8 8 8 8 7 7 7 7 9 10 9 8 8 8 8 8 7 7 8 7 8 8 8 8 8 7 7 7 7 7 6 7 8 8 7 8 8 8 8 10 10 10 7 4 3 4 5 4 3 3 3 3 3 3 nan
nan 6 6 6 6 6 7 7 6 6 7 7 7 7 7 8 8 7 7 7 7 8 7 7 7 7 7 7 8 9 9 8 8 7 6 7 7 8 9 9 8 8 9 8 7 8 8 9 8 8 8 7 7 7 7 7 9 10 11 9 8 8 8 8 7 7 7 8 8 8 8 8 7 7 7 7 7 7 7 7 7 8 9 11 11 10 8 9 11 12 10 5 4 6 8 7 5 4 3 3 3 4 nan
nan 6 6 6 6 6 7 6 6 6 7 7 7 7 7 7 8 8 8 8 9 10 10 9 9 9 9 8 8 9 9 9 8 7 7 7 8 9 10 9 9 9 9 7 7 8 8 9 8 8 8 8 7 7 7 7 8 9 11 10 10 9 8 8 7 7 7 7 8 8 8 8 7 7 7 7 7 7 7 6 7 7 9 11 12 12 11 10 12 13 11 6 5 8 11 11 10 7 6 4 4 3 nan
nan 7 7 7 7 7 7 6 6 7 7 7 7 8 7 7 8 9 9 8 9 9 10 10 10 10 9 9 8 7 8 9 9 9 8 7 8 9 9 8 8 9 8 8 8 8 9 9 9 8 8 8 7 7 7 7 7 8 10 10 10 9 9 8 7 7 7 7 7 8 9 8 8 7 7 7 7 7 7 6 6 7 8 10 12 13 12 12 12 11 9 6 5 8 12 13 12 11 8 6 5 4 nan
nan 7 7 7 7 7 7 7 7 7 8 8 8 9 8 7 7 7 7 6 6 6 7 8 8 8 8 8 6 6 6 8 10 10 9 7 8 8 8 8 8 9 8 9 9 8 8 8 8 8 8 8 8 8 8 8 8 8 9 10 10 10 10 9 8 8 7 7 8 8 9 9 8 8 7 7 7 7 7 6 6 6 7 9 11 13 13 12 11 10 7 5 5 6 9 11 11 11 9 6 6 5 nan
nan 7 7 7 7 7 6 7 8 8 8 8 9 9 8 6 6 6 5 5 4 4 5 6 6 6 6 6 6 5 6 7 8 9 9 9 8 8 8 8 8 8 8 9 9 9 8 8 8 9 9 9 9 9 8 9 9 8 8 10 11 11 12 12 11 10 9 8 8 8 9 9 9 9 8 8 7 7 7 6 6 6 7 8 10 13 14 12 10 8 6 5 5 5 6 7 8 8 8 6 6 5 nan
nan 7 7 8 7 7 7 7 8 9 8 8 8 8 7 6 6 6 6 6 5 5 5 5 6 7 7 7 7 7 7 7 7 7 8 9 9 9 8 9 8 8 8 9 9 8 8 8 8 9 9 9 9 9 9 9 9 8 8 9 9 10 10 11 12 12 11 10 9 8 8 8 9 9 10 9 8 7 6 7 7 7 8 8 9 11 13 13 11 9 8 7 6 6 7 7 7 7 7 7 7 8 nan
nan 7 7 7 8 7 6 8 9 9 8 8 7 7 7 6 7 7 7 7 6 6 6 6 7 8 8 8 9 8 8 8 8 7 7 8 9 9 9 9 8 8 8 8 8 8 8 8 9 9 9 9 9 9 10 9 9 8 8 8 8 8 8 9 10 11 12 11 10 9 8 8 8 9 11 11 10 9 8 8 9 9 9 9 10 10 12 13 12 12 12 11 9 9 10 10 9 9 9 10 12 13 nan
nan 6 7 7 7 7 7 8 10 9 8 7 7 7 8 7 7 7 7 7 7 7 7 7 6 7 7 8 9 9 8 8 8 8 8 8 8 8 8 8 8 8 8 8 8 8 8 8 8 8 8 9 9 9 9 9 9 9 8 8 7 7 8 8 8 8 10 11 12 11 9 8 8 9 12 13 13 12 12 11 11 11 11 11 10 10 11 11 11 12 13 12 11 11 11 11 11 12 12 14 15 16 nan
nan 6 7 7 7 7 8 9 9 8 7 7 7 7 8 8 7 6 7 8 7 7 7 7 6 5 6 7 7 7 8 8 8 8 8 7 7 7 7 8 8 8 8 8 8 8 8 8 8 8 9 9 9 9 8 9 9 9 9 8 8 7 7 7 7 7 8 9 11 13 12 9 8 10 12 14 16 16 15 13 12 12 11 11 10 10 10 10 10 10 11 11 10 10 10 10 11 11 11 13 14 14 nan
nan 7 7 7 7 7 9 9 8 7 6 7 7 7 8 7 7 7 8 8 7 7 8 8 7 6 7 7 6 6 7 7 8 8 7 7 7 7 7 8 8 8 8 7 7 8 8 9 9 9 9 9 9 9 8 8 8 8 9 9 8 8 7 7 8 7 8 9 10 12 13 11 10 11 13 15 16 15 14 12 10 10 10 10 10 10 10 10 11 10 10 9 9 9 9 9 9 9 9 9 9 9 nan
nan 7 7 7 7 8 9 9 7 6 6 7 8 7 7 7 7 8 8 8 7 7 7 8 8 9 9 8 7 6 6 6 7 8 8 7 8 8 8 8 8 8 8 7 7 8 8 9 9 9 9 9 8 8 7 7 8 8 8 9 9 9 9 8 8 8 8 9 9 10 12 12 12 12 14 14 14 12 10 8 8 8 9 10 10 10 10 11 11 11 10 10 9 9 9 8 8 8 8 7 7 6 nan
nan 7 7 7 7 8 9 9 7 6 6 7 8 7 6 7 8 9 9 8 7 6 7 8 8 9 10 9 8 7 6 5 6 8 9 8 8 8 8 8 8 9 8 7 8 8 9 9 9 10 9 8 8 7 7 7 7 8 9 10 11 11 11 10 9 9 9 10 10 10 11 13 13 13 14 12 11 9 8 7 8 9 11 12 11 11 11 11 11 11 10 10 10 9 9 8 8 8 7 7 6 6 nan
nan 8 7 7 7 8 9 8 7 6 6 7 8 8 7 8 9 9 9 8 7 6 7 8 8 9 9 9 9 8 7 7 7 8 9 8 8 8 8 8 8 8 8 8 8 9 9 9 10 9 8 7 8 8 8 8 8 8 9 10 11 12 12 11 10 10 10 10 10 10 10 11 11 11 10 8 7 6 7 9 10 12 14 14 13 13 12 11 11 10 10 10 10 9 8 8 7 7 7 6 6 6 nan
nan 8 8 8 8 9 9 8 6 6 6 8 8 8 7 8 9 8 8 8 8 7 6 7 8 8 9 10 10 10 9 10 10 9 8 8 8 7 8 8 8 8 8 9 9 9 9 9 9 9 8 8 8 9 9 9 9 9 9 9 10 11 12 12 12 11 10 9 10 10 10 10 10 8 5 4 3 4 6 10 12 14 15 14 13 13 12 11 10 10 9 9 9 8 8 7 7 6 6 6 6 6 nan
nan 7 7 8 8 9 9 8 7 7 7 7 8 8 7 8 8 8 7 7 8 8 6 6 6 6 7 10 10 11 11 10 10 9 7 7 7 7 8 9 9 8 8 9 9 9 9 9 9 9 9 8 9 9 9 10 10 9 8 9 9 10 11 11 11 11 10 10 10 11 11 10 9 8 6 5 4 4 5 7 10 12 12 12 11 11 11 10 10 9 8 8 8 7 7 6 6 6 7 7 7 7 nan
nan 7 8 9 9 8 9 8 7 7 8 7 7 7 7 7 7 8 7 7 7 8 7 6 6 5 5 6 8 9 10 9 8 7 6 6 6 6 8 10 11 10 10 9 8 8 9 9 9 9 9 9 9 9 9 10 10 9 9 9 9 10 10 10 10 10 10 11 11 11 10 9 9 8 7 7 6 6 4 3 5 7 9 8 8 8 8 9 9 9 8 7 7 7 7 7 7 7 8 8 8 8 nan
nan 6 9 11 10 8 9 9 7 7 8 7 7 8 7 7 7 7 6 6 7 9 10 8 7 5 4 3 4 7 9 8 8 6 6 5 6 7 8 10 11 10 9 9 8 8 9 9 9 9 9 9 9 9 10 10 10 10 9 9 9 8 8 9 8 9 11 13 13 12 10 9 8 7 7 7 7 6 5 3 1 2 4 5 6 6 6 7 8 8 8 7 7 7 7 8 8 8 9 9 9 9 nan
nan 6 9 11 11 9 8 9 8 7 7 7 8 9 10 9 8 8 6 5 6 8 10 10 10 8 6 3 3 6 8 8 7 6 6 6 6 7 8 9 9 9 8 8 8 7 8 9 9 9 9 10 10 9 10 10 10 10 9 9 8 7 7 8 9 10 13 14 14 12 10 8 8 7 7 7 7 7 7 5 3 1 0 1 2 3 3 6 7 8 8 8 8 8 8 9 9 9 9 9 9 8 nan
nan 6 8 10 11 9 9 9 8 7 7 7 8 10 12 10 9 9 8 6 5 5 6 8 11 12 10 6 6 8 9 8 5 4 5 8 9 8 8 8 8 9 10 9 8 8 8 7 8 8 9 10 10 10 10 10 10 9 9 8 8 7 8 8 9 11 13 14 12 11 9 8 7 7 7 8 8 8 8 7 6 5 3 0 -1 -1 -0 2 5 7 7 7 7 8 9 9 9 8 8 8 8 8 nan
nan 7 8 8 9 9 10 10 8 7 8 8 9 10 12 11 9 8 9 8 5 4 3 4 7 11 13 11 9 10 11 8 4 2 4 9 10 11 9 7 7 8 10 10 9 9 7 6 6 6 7 9 10 10 10 10 9 9 9 9 8 8 9 9 10 11 12 11 10 9 8 8 7 8 9 9 10 9 8 8 8 7 6 4 3 2 3 2 2 4 7 6 7 7 8 9 8 8 8 8 8 7 nan
nan 7 8 7 8 8 11 11 9 8 7 7 8 9 10 11 8 7 9 9 8 6 3 2 4 7 10 11 10 11 11 9 5 3 6 7 8 10 9 8 7 6 8 10 10 8 6 5 6 5 5 7 9 10 11 11 10 9 9 9 9 9 9 10 10 10 10 9 8 6 6 6 8 9 11 11 11 10 9 9 8 8 7 7 7 7 6 6 6 4 5 5 6 6 7 8 8 8 7 7 7 7 nan
nan 7 6 6 7 8 9 10 9 8 7 7 7 7 8 9 8 7 8 9 8 7 6 5 4 4 5 8 8 9 11 11 7 5 5 6 5 6 8 10 10 9 7 9 8 6 4 5 4 5 4 5 8 9 11 11 10 9 9 10 9 9 9 9 10 10 9 8 7 7 6 7 8 9 10 9 9 9 9 9 8 8 8 7 7 6 5 5 5 5 3 3 3 4 5 7 8 7 7 6 6 6 nan
nan 8 5 4 5 7 9 10 9 9 7 7 8 8 9 8 7 6 7 7 8 8 8 7 5 3 3 5 7 8 11 11 8 6 6 6 6 5 7 9 10 10 8 7 7 8 6 5 6 7 5 5 7 7 9 10 10 10 10 9 9 8 9 9 9 9 9 8 8 7 7 8 8 9 8 7 6 7 8 8 8 8 8 7 7 7 7 5 4 3 2 1 1 3 4 7 7 6 6 6 6 5 nan
nan 9 6 4 5 6 9 10 8 8 7 7 8 9 9 9 7 7 8 8 8 7 8 7 6 4 3 4 6 7 9 10 10 9 7 6 7 6 6 6 7 7 9 10 10 8 6 6 9 10 6 7 8 7 5 7 10 12 11 9 8 8 9 9 8 8 7 8 8 8 8 8 8 8 8 7 6 7 8 8 8 8 8 8 8 8 7 5 3 2 1 1 2 4 4 5 5 6 6 5 5 5 nan
nan 8 7 7 6 6 8 9 8 8 8 7 7 8 9 10 10 10 9 10 9 7 5 6 7 4 3 5 7 6 6 8 10 12 9 6 5 7 9 7 4 4 7 9 10 9 7 8 9 10 9 8 9 9 5 5 8 11 11 10 9 9 9 8 8 8 7 8 8 8 8 9 8 7 7 7 7 7 7 7 7 7 8 8 7 7 6 5 4 4 4 3 3 4 5 4 5 6 5 5 5 5 nan
nan 9 9 9 8 6 6 7 8 8 7 7 8 8 8 10 10 11 10 10 9 7 5 6 8 7 4 5 7 7 5 6 8 10 10 9 7 7 9 9 7 6 7 8 10 11 12 12 9 8 8 7 8 8 7 7 7 9 9 8 10 11 9 9 9 9 9 8 8 7 8 9 8 7 7 8 7 6 6 7 7 8 8 8 8 7 7 7 7 7 7 7 6 5 5 5 5 5 6 6 6 6 nan
nan 10 10 9 9 7 5 6 7 7 7 8 8 8 8 8 9 9 10 9 9 10 8 5 7 8 8 7 7 7 5 4 5 6 9 11 10 8 7 6 7 10 10 10 11 11 11 8 8 7 9 7 6 6 7 7 7 8 8 7 8 10 10 11 10 10 10 9 8 7 7 7 8 8 8 7 7 6 6 7 8 8 9 8 8 8 8 8 8 9 9 8 8 7 6 6 6 6 6 6 7 8 nan
nan 9 10 10 10 8 6 6 7 7 8 8 8 8 8 8 8 8 10 10 11 10 9 6 7 8 10 9 7 6 6 5 5 6 8 10 11 11 10 6 5 7 9 11 12 11 10 5 6 7 9 7 6 5 6 6 7 7 7 7 8 8 9 9 9 9 9 9 9 8 7 7 8 9 8 7 6 6 6 7 8 9 9 8 8 8 8 7 7 7 8 8 9 9 8 7 6 7 7 7 8 10 nan
nan 7 8 10 10 8 6 6 6 6 8 8 8 8 8 8 8 8 9 11 13 12 10 8 7 8 11 11 8 7 7 7 7 7 7 7 9 11 13 11 9 7 7 7 9 11 11 10 9 9 8 7 6 6 4 5 6 7 6 6 7 9 9 7 7 9 9 8 9 10 8 7 7 8 8 7 7 7 7 7 8 8 9 9 8 8 7 6 5 5 5 5 7 8 7 7 7 7 7 8 10 12 nan
nan nan nan nan nan nan nan nan nan nan nan nan nan nan nan nan nan nan nan nan nan nan nan nan nan nan nan nan nan nan nan nan nan nan nan nan nan nan nan nan nan nan nan nan nan nan nan nan nan nan nan nan nan nan nan nan nan nan nan nan nan nan nan nan nan nan nan nan nan nan nan nan nan nan nan nan nan nan nan nan nan nan nan nan nan nan nan nan nan nan nan nan nan nan nan nan nan nan nan nan nan nan nan
CAPE
116 75 87 143 243 243 302 337 344 344 291 190 117 117 63 22 22 9 8 11 11 21 44 71 117 117 209 304 396 396 371 322 216 216 184 188 188 211 237 200 200 150 91 47 23 23 7 nan nan nan nan nan nan nan nan nan nan nan 0 2 2 nan nan 3 3 3 2 1 0 0 1 2 1 1 0 1 1 1 2 2 2 2 6 11 21 21 21 20 30 30 38 43 47 47 38 32 32 27 22 19 19 13 8
56 42 57 103 196 196 256 292 270 270 222 138 78 78 33 10 10 3 3 9 9 19 37 61 103 103 172 281 342 342 349 278 201 201 170 191 191 215 218 148 148 105 58 28 14 14 0 nan nan nan nan nan nan nan nan nan nan nan 0 2 2 nan nan 6 3 3 2 1 0 0 1 2 1 1 0 0 0 0 2 2 2 1 4 7 16 16 16 20 28 28 34 37 42 42 39 34 34 28 19 18 18 13 7
29 33 36 74 133 133 188 221 202 202 162 94 56 56 17 7 7 2 2 7 7 21 32 52 79 79 159 243 325 325 332 261 185 185 172 176 176 198 181 119 119 69 42 17 5 5 nan nan nan nan nan nan nan nan nan nan nan nan nan nan nan nan nan 6 4 4 3 1 0 0 1 2 2 2 0 nan nan nan 1 2 2 1 3 6 11 11 15 18 25 25 30 33 34 34 36 33 33 26 17 18 18 13 7
31 24 37 52 101 101 151 158 166 166 113 70 36 36 13 4 4 0 1 6 6 18 35 47 73 73 120 194 263 263 291 225 170 170 140 143 143 163 166 93 93 61 29 9 nan nan nan nan nan nan nan nan nan nan nan nan nan nan nan nan nan nan 1 6 6 6 3 1 nan nan 0 2 2 2 1 nan nan nan 0 2 2 2 1 4 8 8 7 13 22 22 23 25 25 25 24 28 28 24 17 17 17 13 6
22 16 19 33 75 75 100 126 134 134 103 48 21 21 4 0 0 nan 3 9 9 17 27 46 70 70 100 152 211 211 234 194 142 142 114 117 117 133 120 70 70 36 14 1 nan nan nan nan nan nan nan nan nan nan nan nan nan nan nan nan nan nan 6 8 7 7 5 1 0 0 0 1 1 1 2 nan nan 0 nan 1 1 2 1 0 3 3 2 6 11 11 16 18 16 16 18 19 19 18 15 15 15 12 5
15 3 5 25 67 67 91 98 105 105 77 29 9 9 2 nan nan 1 5 10 10 18 28 38 56 56 69 112 167 167 168 151 118 118 91 81 81 82 70 36 36 18 6 nan nan nan nan nan nan nan nan nan nan nan nan nan nan nan nan nan nan 1 7 11 9 9 7 3 0 0 nan 0 1 1 2 0 0 0 0 1 1 1 0 nan 0 0 2 4 4 4 6 8 11 11 14 15 15 14 13 11 11 11 4
9 1 6 18 60 60 67 73 79 79 54 23 10 10 1 1 1 4 8 12 12 19 26 29 37 37 46 78 109 109 128 128 97 97 71 51 51 43 24 14 14 6 nan nan nan nan nan nan nan nan nan nan nan nan nan nan nan nan nan nan nan 10 11 14 12 12 11 7 3 3 0 0 1 1 1 1 1 1 0 0 0 1 1 nan nan nan nan 0 1 1 0 3 8 8 9 9 9 11 8 7 7 6 1
4 1 3 22 52 52 58 64 70 70 32 16 7 7 4 4 4 6 10 13 13 18 20 22 24 24 29 42 63 63 90 78 64 64 43 23 23 14 10 4 4 nan nan nan nan nan nan nan nan nan nan nan nan nan nan nan nan nan nan nan nan 3 14 15 16 16 13 10 6 6 2 1 0 0 0 1 1 2 1 1 1 1 1 1 0 0 nan nan nan nan 0 2 3 3 3 3 3 4 4 4 4 3 0
9 0 4 27 46 46 51 42 33 33 36 12 8 8 6 8 8 10 12 14 14 14 16 17 18 18 16 18 26 26 40 40 31 31 18 8 8 4 1 nan nan nan nan nan nan nan nan nan nan nan nan nan nan nan nan nan nan nan nan nan nan nan 14 18 19 19 17 15 10 10 6 3 1 1 nan 0 0 2 2 1 1 1 1 2 2 2 1 nan nan nan nan nan 0 0 0 1 1 1 1 1 1 0 0
14 1 9 23 40 40 44 34 24 24 20 12 9 9 8 10 10 12 13 14 14 14 11 9 9 9 9 9 13 13 15 17 10 10 5 2 2 0 nan nan nan nan nan nan nan nan nan nan nan nan nan nan nan nan nan nan nan nan nan nan nan 1 12 19 20 20 21 20 18 18 12 7 5 5 1 0 0 0 1 1 1 1 1 2 3 3 3 2 nan nan nan nan nan nan nan nan nan 0 0 0 0 nan nan
12 13 27 45 66 66 36 26 20 20 19 13 11 11 10 11 11 10 12 9 9 8 6 5 3 3 2 2 2 2 5 5 4 4 0 nan nan nan nan nan nan nan nan nan nan nan nan nan nan nan nan nan nan nan nan nan nan nan nan nan nan 8 12 19 21 21 24 23 23 23 16 13 8 8 3 0 0 0 0 2 2 1 1 1 2 2 3 3 2 2 0 nan nan nan nan nan nan nan nan nan nan nan 0
47 68 89 73 77 77 63 37 31 31 19 14 11 11 12 10 10 10 8 5 5 4 2 0 nan nan nan nan nan nan nan nan nan nan nan nan nan nan nan nan nan nan nan nan nan nan nan nan nan nan nan nan nan nan nan nan nan nan nan 3 3 8 14 18 23 23 24 24 24 24 20 18 14 14 9 3 3 0 0 1 1 2 1 1 1 1 1 2 3 3 1 nan nan nan nan nan nan nan nan nan nan nan 3
99 168 147 67 135 135 99 68 44 44 25 22 15 15 12 13 13 9 6 4 4 1 nan nan nan nan nan nan nan nan nan nan nan nan nan nan nan nan nan nan nan nan nan nan nan nan nan nan nan nan nan nan nan nan nan nan nan nan nan 15 15 11 12 16 22 22 23 24 25 25 25 23 19 19 16 9 9 3 nan 0 0 1 2 1 0 0 0 1 2 2 2 nan nan nan 0 1 1 0 nan nan nan 2 13
159 185 58 63 153 153 159 103 73 73 47 26 21 21 16 12 12 8 4 1 1 nan nan nan nan nan nan nan nan nan nan nan nan nan nan nan nan nan nan nan nan nan nan nan nan nan nan nan nan nan nan nan nan nan nan nan nan nan nan 9 9 14 17 22 24 24 25 24 24 24 24 24 23 23 20 15 15 9 2 nan nan 0 1 2 1 1 nan 0 1 1 1 0 nan nan 1 2 2 1 nan nan nan 5 21
49 0 nan 26 125 125 176 160 144 144 110 78 64 64 37 18 18 11 3 nan nan nan nan nan nan nan nan nan nan nan nan nan nan nan nan nan nan nan nan nan nan nan nan nan nan nan nan nan nan nan nan nan nan nan nan nan nan nan nan 7 7 18 23 27 27 27 27 24 23 23 23 24 23 23 23 19 19 13 6 1 1 nan 0 2 2 2 0 nan 0 0 1 nan nan nan 0 3 3 2 nan 0 0 8 17
nan nan nan 25 100 100 191 219 201 201 183 187 148 148 93 31 31 22 6 0 0 nan nan nan nan nan nan nan nan nan nan nan nan nan nan nan nan nan nan nan nan nan nan nan nan nan nan nan nan nan nan nan nan nan nan nan nan nan 3 11 11 21 27 32 32 32 33 27 23 23 22 22 24 24 23 20 20 17 10 3 3 1 nan 0 2 2 1 0 0 0 0 nan nan nan nan 2 2 4 1 0 0 7 12
nan nan nan 12 74 74 180 234 239 239 244 248 226 226 142 87 87 55 28 5 5 2 nan nan nan nan nan nan 1 1 nan 0 nan nan nan nan nan nan nan nan nan nan nan nan nan nan nan nan nan nan nan nan nan nan nan nan nan nan 4 13 13 24 29 33 37 37 36 33 28 28 23 23 24 24 23 22 22 17 12 5 5 3 1 0 0 0 0 0 nan nan nan nan nan nan nan 0 0 3 3 2 2 3 6
nan nan nan 3 36 36 128 199 229 229 234 214 217 217 155 118 118 83 51 27 27 10 2 nan nan nan nan nan 0 0 nan nan nan nan nan nan nan nan nan nan nan nan nan nan nan nan nan nan nan nan nan nan nan nan nan nan nan nan 4 15 15 28 30 29 36 36 40 37 33 33 30 25 25 25 25 23 23 18 13 8 8 4 4 2 0 0 0 nan 0 0 nan nan nan nan nan nan nan 1 5 5 5 4 3
nan nan nan 0 7 7 51 108 132 132 137 141 126 126 129 112 112 114 98 36 36 9 0 nan nan nan nan 0 0 0 nan nan nan nan nan nan nan nan nan nan nan nan nan nan nan nan nan nan nan nan nan nan nan nan nan nan nan nan 3 16 16 28 33 29 34 34 40 42 38 38 32 26 28 28 26 26 26 20 14 9 9 5 4 3 2 2 1 0 nan nan nan nan nan nan nan nan nan nan 3 6 6 7 3
nan nan nan nan nan nan nan nan nan nan nan nan nan nan 1 nan nan nan nan nan nan nan nan nan 0 0 1 nan nan nan nan nan nan nan nan nan nan nan nan nan nan nan nan nan nan nan nan nan nan nan nan nan nan nan nan nan nan nan 12 21 21 28 27 25 32 32 36 40 42 42 41 38 39 39 40 29 29 25 19 14 14 9 5 4 5 5 3 4 4 4 3 0 nan nan nan nan nan nan 0 1 1 4 4
nan nan nan nan nan nan nan nan nan nan nan nan nan nan nan nan nan nan nan nan nan nan nan 0 nan nan nan nan nan nan nan nan nan nan nan nan nan nan nan nan nan nan nan nan nan nan nan nan nan nan nan nan nan nan nan nan nan nan 12 24 24 29 29 29 36 36 47 43 43 43 45 45 46 46 46 31 31 28 21 15 15 9 5 4 5 5 4 3 3 3 3 1 nan nan nan nan nan nan nan 0 0 2 3
nan nan nan nan nan nan nan nan nan nan nan 0 nan nan nan nan nan 0 nan nan nan 0 0 nan nan nan nan nan nan nan nan nan nan nan nan nan nan nan nan nan nan nan nan nan nan nan nan nan nan nan nan nan nan nan nan nan nan nan 12 32 32 35 34 30 32 32 36 42 47 47 46 45 55 55 55 40 40 34 26 18 18 13 5 4 4 4 5 3 3 3 2 2 0 0 nan nan nan nan nan 0 0 0 1
nan nan nan nan nan nan nan nan nan nan nan nan nan nan nan nan nan nan nan nan nan nan nan nan nan nan nan nan nan nan nan nan nan nan nan nan nan nan nan nan nan nan nan nan nan nan nan nan nan nan nan nan nan nan nan nan nan nan 8 37 37 40 38 30 27 27 29 36 40 40 43 43 56 56 63 55 55 48 31 22 22 15 9 5 3 3 4 2 3 3 3 1 1 1 0 0 0 0 nan nan nan nan nan
nan nan nan nan nan nan nan 0 nan nan nan nan nan nan nan nan nan nan nan nan nan nan nan nan nan nan nan nan nan nan nan nan nan nan nan nan nan nan nan nan nan nan nan nan nan nan nan nan nan nan nan nan nan nan nan nan nan nan 2 27 27 51 42 33 27 27 23 25 32 32 35 38 49 49 62 65 65 55 40 26 26 21 14 8 3 3 3 2 1 1 3 3 1 1 0 nan nan 1 0 nan nan nan nan
nan nan nan nan 0 0 nan nan nan nan nan nan 0 0 nan nan nan nan nan nan nan nan nan nan nan nan nan nan nan nan nan nan nan nan nan nan nan nan nan nan nan nan nan nan nan nan nan nan nan nan nan nan nan nan nan nan nan nan nan 16 16 38 39 34 32 32 26 23 23 23 24 28 40 40 59 71 71 65 52 37 37 29 19 12 5 5 3 3 2 2 2 3 3 3 0 nan nan nan nan 0 0 nan nan
nan nan nan nan nan nan nan nan 0 0 0 0 0 0 nan nan nan 0 0 nan nan nan nan nan nan nan nan nan nan nan nan nan nan nan nan nan nan nan nan nan nan nan nan nan nan nan nan nan nan nan nan nan nan nan nan nan nan nan nan 4 4 25 33 30 29 29 28 25 22 22 20 23 36 36 55 71 71 75 72 55 55 44 32 20 13 13 8 7 5 5 2 1 3 3 1 nan nan nan nan nan nan nan nan
nan nan nan nan nan nan nan nan nan nan nan 0 0 0 0 0 0 0 0 0 0 nan 0 nan nan nan nan nan nan nan nan nan nan nan nan nan nan nan nan nan nan nan nan nan nan nan nan nan nan nan nan nan nan nan nan nan nan nan nan nan nan 11 23 25 25 25 29 29 23 23 20 18 32 32 50 71 71 85 87 76 76 60 50 41 32 32 24 15 10 10 6 2 1 1 2 1 1 nan nan nan nan nan nan
nan nan nan nan nan nan nan 0 0 0 nan 0 0 0 0 0 0 0 0 0 0 nan 0 nan nan nan nan nan nan nan nan nan nan nan nan nan nan nan nan nan nan nan nan nan nan nan nan nan nan nan nan nan nan nan nan nan nan nan nan nan nan 3 13 18 18 18 25 29 26 26 20 20 26 26 47 63 63 85 101 101 101 88 68 59 54 54 39 28 24 24 19 5 3 3 3 3 3 1 0 nan nan nan nan
nan nan nan nan nan nan nan nan nan nan nan nan 0 0 0 0 0 nan nan nan nan nan nan nan nan nan nan nan nan nan nan nan nan nan nan nan nan nan nan nan nan nan nan nan nan nan nan nan nan nan nan nan nan nan nan nan nan nan nan nan nan nan 6 14 19 19 23 21 21 21 18 17 18 18 33 53 53 68 90 99 99 102 90 76 65 65 58 45 48 48 45 24 6 6 6 5 5 5 3 1 1 nan nan
0 nan nan nan nan nan nan nan nan nan nan nan nan nan nan nan nan nan nan nan nan nan nan nan nan nan nan nan nan nan nan nan nan nan nan nan nan nan nan nan nan nan nan nan nan nan nan nan nan nan nan nan nan nan nan nan nan nan nan nan nan nan 1 9 17 17 18 17 16 16 15 15 14 14 22 36 36 50 66 87 87 105 104 94 88 88 80 72 65 65 62 49 20 20 12 11 11 9 8 4 4 2 0
nan nan nan nan nan nan nan nan nan nan nan nan nan nan nan nan nan nan nan nan nan nan nan nan nan nan nan nan nan nan nan nan nan nan nan nan nan nan nan nan nan nan nan nan nan nan nan nan nan nan nan nan nan nan nan nan nan nan nan nan nan nan nan 3 13 13 18 18 17 17 15 12 10 10 13 22 22 34 49 75 75 96 106 111 109 109 113 105 94 94 84 77 50 50 28 22 22 17 13 7 7 6 4
nan nan nan nan nan nan nan nan nan nan nan nan nan nan nan nan nan nan nan nan nan nan nan nan nan nan nan nan nan nan nan nan nan nan nan nan nan nan nan nan nan nan nan nan nan nan nan nan nan nan nan nan nan nan nan nan nan nan nan nan nan nan nan nan 4 4 14 23 25 25 20 13 8 8 9 17 17 23 28 53 53 77 107 120 131 131 149 137 116 116 105 96 63 63 50 48 48 37 28 21 21 14 13
nan nan nan nan nan nan nan nan nan nan nan nan nan nan nan nan nan nan nan nan nan nan nan nan nan nan nan nan nan nan nan nan nan nan nan nan nan nan nan nan nan nan nan nan nan nan nan nan nan nan nan nan nan nan nan nan nan nan nan nan nan nan nan nan nan nan 7 22 28 28 26 17 10 10 12 14 14 19 17 31 31 50 76 104 136 136 210 164 139 139 128 119 90 90 80 77 77 66 51 44 44 35 31
nan nan nan nan nan nan nan nan nan nan nan nan nan nan nan nan nan nan nan nan nan nan nan nan nan nan nan nan nan nan nan nan nan nan nan nan nan nan nan nan nan nan nan nan nan nan nan nan nan nan nan nan nan nan nan nan nan nan nan nan nan nan nan nan nan nan 0 8 23 23 27 20 14 14 12 17 17 18 15 23 23 30 46 69 114 114 175 201 167 167 145 140 118 118 106 91 91 94 84 76 76 71 65
nan nan nan nan nan nan nan nan nan nan nan nan nan nan nan nan nan nan nan nan nan nan nan nan nan nan nan nan nan nan nan nan nan nan nan nan nan nan nan nan nan nan nan nan nan nan nan nan nan nan nan nan nan nan nan nan nan nan nan nan nan nan nan nan nan nan nan nan 10 10 23 22 14 14 13 15 15 14 12 12 12 19 25 37 63 63 133 183 173 173 173 177 143 143 107 98 98 108 120 124 124 119 123
nan nan nan nan nan nan nan nan nan nan nan nan nan nan nan nan nan nan nan nan nan nan nan nan nan nan nan nan nan nan nan nan nan nan nan nan nan nan nan nan nan nan nan nan nan nan nan nan nan nan nan nan nan nan nan nan nan nan nan nan nan nan nan nan nan nan nan nan nan nan 10 22 15 15 11 8 8 8 7 12 12 10 10 14 28 28 84 147 177 177 190 205 174 174 132 122 122 139 137 145 145 159 157
nan nan nan nan nan nan nan nan nan nan nan nan nan nan nan nan nan nan nan nan nan nan nan nan nan nan nan nan nan nan nan nan nan nan nan nan nan nan nan nan nan nan nan nan nan nan nan nan nan nan nan nan nan nan nan nan nan nan nan nan nan nan nan nan nan nan nan nan nan nan 0 14 25 25 15 7 7 5 5 7 7 5 4 5 13 13 43 94 176 176 199 231 231 231 200 185 185 184 172 173 173 200 177
nan nan nan nan nan nan nan nan nan nan nan nan nan nan nan nan nan nan nan nan nan nan nan nan nan nan nan nan nan nan nan nan nan nan nan nan nan nan nan nan nan nan nan nan nan nan nan nan nan nan nan nan nan nan nan nan nan nan nan nan nan nan nan nan nan nan nan nan nan nan nan 2 25 25 31 12 12 4 5 6 6 3 2 3 8 8 16 31 68 68 141 247 213 213 223 276 276 269 232 267 267 252 210
nan nan nan nan nan nan nan nan nan nan nan nan nan nan nan nan nan nan nan nan nan nan nan nan nan nan nan nan nan nan nan nan nan nan nan nan nan nan nan nan nan nan nan nan nan nan nan nan nan nan nan nan nan nan nan nan nan nan nan nan nan nan nan nan nan nan nan nan nan nan nan nan 6 6 30 21 21 3 2 1 1 0 2 4 7 7 7 6 14 14 35 48 63 63 102 131 131 120 109 124 124 131 151
nan nan nan nan nan nan nan nan nan nan nan nan nan nan nan nan nan nan nan nan nan nan nan nan nan nan nan nan nan nan nan nan nan nan nan nan nan nan nan nan nan nan nan nan nan nan nan nan nan nan nan nan nan nan nan nan nan nan nan nan nan nan nan nan nan nan nan nan nan nan nan nan nan nan 15 21 21 6 nan nan nan nan 2 4 4 4 2 0 nan nan nan 0 1 1 8 16 16 17 13 19 19 26 40
nan nan nan nan nan nan nan nan nan nan nan nan nan nan nan nan nan nan nan nan nan nan nan nan nan nan nan nan nan nan nan nan nan nan nan nan nan nan nan nan nan nan nan nan nan nan nan nan nan nan nan nan nan nan nan nan nan nan nan nan nan nan nan nan nan nan nan nan nan nan nan nan nan nan 0 11 11 5 0 0 0 4 2 0 nan nan nan nan nan nan nan nan nan nan nan nan nan nan nan nan nan nan nan
nan nan nan nan nan nan nan nan nan nan nan nan nan nan nan nan nan nan nan nan nan nan nan nan nan nan nan nan nan nan nan nan nan nan nan nan nan nan nan nan nan nan nan nan nan nan nan nan nan nan nan nan nan nan nan nan nan nan nan nan nan nan nan nan nan nan nan nan nan nan nan nan nan nan 0 5 5 6 4 nan nan 16 4 nan nan nan nan nan nan nan nan nan nan nan nan nan nan nan nan nan nan nan nan
nan nan nan nan nan nan nan nan nan nan nan nan nan nan nan nan nan nan nan nan nan nan nan nan nan nan nan nan nan nan nan nan nan nan nan nan nan nan nan nan nan nan nan nan nan nan nan nan nan nan nan nan nan nan nan nan nan nan nan nan nan nan nan nan nan nan nan nan nan nan nan nan nan nan nan nan nan nan nan nan nan 1 nan nan nan nan nan nan nan nan nan nan nan nan nan nan nan nan 1 5 5 10 8
nan nan nan nan nan nan nan nan nan nan nan nan nan nan nan nan nan nan nan nan nan nan nan nan nan nan nan nan nan nan nan nan nan nan nan nan nan nan nan nan nan nan nan nan nan nan nan nan nan nan nan nan nan nan nan nan nan nan nan nan nan nan nan nan nan nan nan nan nan nan nan nan nan nan nan nan nan nan nan nan nan nan 4 1 nan nan nan nan 1 1 5 8 6 6 5 12 12 18 25 34 34 24 15
nan nan nan nan nan nan nan nan nan nan nan nan nan nan nan nan nan nan nan nan nan nan nan nan nan nan nan nan nan nan nan nan nan nan nan nan nan nan nan nan nan nan nan nan nan nan nan nan nan nan nan nan nan nan nan nan nan nan nan nan nan nan nan nan nan nan nan nan nan nan nan nan nan nan nan nan nan nan nan nan nan nan 10 12 5 5 7 6 10 10 18 22 18 18 17 13 13 14 20 19 19 12 10
nan nan nan nan nan nan nan nan nan nan nan nan nan nan nan nan nan nan nan nan nan nan nan nan nan nan nan nan nan nan nan nan nan nan nan nan nan nan nan nan nan nan nan nan nan nan nan nan nan nan nan nan nan nan nan nan nan nan nan nan nan nan nan nan nan nan nan nan nan nan nan nan nan nan nan nan nan nan nan nan nan nan nan 4 4 4 5 5 9 9 14 16 14 14 7 3 3 3 4 4 4 3 2
nan nan nan nan nan nan nan nan nan nan nan nan nan nan nan nan nan nan nan nan nan nan nan nan nan nan nan nan nan nan nan nan nan nan nan nan nan nan nan nan nan nan nan nan nan nan nan nan nan nan nan nan nan nan nan nan nan nan nan nan nan nan nan nan nan nan nan nan nan nan nan nan nan nan nan nan nan nan nan nan nan nan nan nan nan nan nan nan nan nan 0 0 nan nan nan nan nan nan 0 0 0 nan nan
nan nan nan nan nan nan nan nan nan nan nan nan nan nan nan nan nan nan nan nan nan nan nan nan nan nan nan nan nan nan nan nan nan nan nan nan nan nan nan nan nan nan nan nan nan nan nan nan nan nan nan nan nan nan nan nan nan nan nan nan nan nan nan nan nan nan nan nan nan nan nan nan nan nan nan nan nan nan nan nan nan nan nan nan nan nan nan nan nan nan nan nan nan nan nan nan nan nan nan 1 1 0 0
nan nan nan nan nan nan nan nan nan nan nan nan nan nan nan nan nan nan nan nan nan nan nan nan nan nan nan nan nan nan nan nan nan nan nan nan nan nan nan nan nan nan nan nan nan nan nan nan nan nan nan nan nan nan nan nan nan nan nan nan nan nan nan nan nan nan nan nan nan nan nan nan nan nan nan nan nan nan nan nan nan nan nan nan nan nan nan nan nan nan nan nan nan nan nan nan nan nan 0 0 0 0 0
nan nan nan nan nan nan nan nan nan nan nan nan nan nan nan nan nan nan nan nan nan nan nan nan nan nan nan nan nan nan nan nan nan nan nan nan nan nan nan nan nan nan nan nan nan nan nan nan nan nan nan nan nan nan nan nan nan nan nan nan nan nan nan nan nan nan nan nan nan nan nan nan nan nan nan nan nan nan nan nan nan nan nan nan nan nan nan nan nan nan nan nan nan nan nan nan nan nan nan nan nan 0 0
nan nan nan nan nan nan nan nan nan nan nan nan nan nan nan nan nan nan nan nan nan nan nan nan nan nan nan nan nan nan nan nan nan nan nan nan nan nan nan nan nan nan nan nan nan nan nan nan nan nan nan nan nan nan nan nan nan nan nan nan nan nan nan nan nan nan nan nan nan nan nan nan nan nan nan nan nan nan nan nan nan nan nan nan nan nan nan nan nan nan nan nan nan nan nan nan nan nan nan nan nan nan 0
nan nan nan nan nan nan nan nan nan nan nan nan nan nan nan nan nan nan nan nan nan nan nan nan nan nan nan nan nan nan nan nan nan nan nan nan nan nan nan nan nan nan nan nan nan nan nan nan nan nan nan nan nan nan nan nan nan nan nan nan nan nan nan nan nan nan nan nan nan nan nan nan nan nan nan nan nan nan nan nan nan nan nan nan nan nan nan nan nan nan nan nan nan nan nan nan nan nan nan nan nan nan nan
nan nan nan nan nan nan nan nan nan nan nan nan nan nan nan nan nan nan nan nan nan nan nan nan nan nan nan nan nan nan nan nan nan nan nan nan nan nan nan nan nan nan nan nan nan nan nan nan nan nan nan nan nan nan nan nan nan nan nan nan nan nan nan nan nan nan nan nan nan nan nan nan nan nan nan nan nan nan nan nan nan nan nan nan nan nan nan nan nan nan nan nan nan nan nan nan nan nan nan nan nan nan nan
nan nan nan nan nan nan nan nan nan nan nan nan nan nan nan nan nan nan nan nan nan nan nan nan nan nan nan nan nan nan nan nan nan nan nan nan nan nan nan nan nan nan nan nan nan nan nan nan nan nan nan nan nan nan nan nan nan nan nan nan nan nan nan nan nan nan nan nan nan nan nan nan nan nan nan nan nan nan nan nan nan nan nan nan nan nan nan nan nan nan nan nan nan nan nan nan nan nan nan nan nan nan nan
nan nan nan nan nan nan nan nan nan nan nan nan nan nan nan nan nan nan nan nan nan nan nan nan nan nan nan nan nan nan nan nan nan nan nan nan nan nan nan nan nan nan nan nan nan nan nan nan nan nan nan nan nan nan nan nan nan nan nan nan nan nan nan nan nan nan nan nan nan nan nan nan nan nan nan nan nan nan nan nan nan nan nan nan nan nan nan nan nan nan nan nan nan nan nan nan nan nan nan nan nan nan nan
nan nan nan nan nan nan nan nan nan nan nan nan nan nan nan nan nan nan nan nan nan nan nan nan nan nan nan nan nan nan nan nan nan nan nan nan nan nan nan nan nan nan nan nan nan nan nan nan nan nan nan nan nan nan nan nan nan nan nan nan nan nan nan nan nan nan nan nan nan nan nan nan nan nan nan nan nan nan nan nan nan nan nan nan nan nan nan nan nan nan nan nan nan nan nan nan nan nan nan nan nan nan nan
nan nan nan nan nan nan nan nan nan nan nan nan nan nan nan nan nan nan nan nan nan nan nan nan nan nan nan nan nan nan nan nan nan nan nan nan nan nan nan nan nan 0 3 nan nan nan nan nan nan nan nan nan nan nan nan nan nan nan nan nan nan nan nan nan nan nan nan nan nan nan nan nan nan nan nan nan nan nan nan nan nan nan nan nan nan nan nan nan nan nan nan nan nan nan nan nan nan nan nan nan nan nan 0
nan nan nan nan nan nan nan nan nan nan nan nan nan nan nan nan nan nan nan nan nan nan nan nan nan nan nan nan nan nan nan nan nan nan nan nan nan nan nan nan nan nan nan nan nan nan nan nan nan nan nan nan nan nan nan nan nan nan nan nan nan nan nan nan nan nan nan nan nan nan nan nan nan nan nan nan nan nan nan nan nan nan nan nan nan nan nan nan nan nan nan nan nan nan nan nan nan nan nan nan nan nan 1
nan nan nan nan nan nan nan nan nan nan nan nan nan nan nan nan nan nan nan nan nan nan nan nan nan nan nan nan nan nan nan nan nan nan nan nan nan nan nan nan nan nan nan nan nan nan nan nan nan nan nan nan nan nan nan nan nan nan nan nan nan nan nan nan nan nan nan nan nan nan nan nan nan nan nan nan nan nan nan nan nan nan nan nan nan nan nan nan nan nan nan nan nan nan nan nan nan nan nan nan nan nan 2
nan nan nan nan nan nan nan nan nan nan nan nan nan nan nan nan nan nan nan nan nan nan nan nan nan nan nan nan nan nan nan nan nan nan nan nan nan nan nan nan nan nan nan nan nan nan nan 10 nan nan nan nan nan nan nan nan nan nan nan nan nan nan nan nan nan nan nan nan nan nan nan nan nan nan nan nan nan nan nan nan nan nan nan nan nan nan nan nan nan nan nan nan nan nan nan nan nan nan nan nan nan nan 3
nan nan nan nan nan nan nan nan nan nan nan nan nan nan nan nan nan nan nan nan nan nan nan nan nan nan nan nan nan nan 2 nan nan nan nan nan nan nan nan nan nan nan nan nan nan nan nan nan nan nan nan nan nan nan nan nan nan nan nan nan nan nan nan nan nan nan nan nan nan nan nan nan nan nan nan nan nan nan nan nan nan nan nan nan nan nan nan nan nan nan nan nan nan nan nan nan nan nan nan nan nan 0 3